When you browse on this site, cookies collect data to enhance your experience and personalize the content and advertising you see.
Visit our Privacy Policy to learn more. By continuing to use the site, you agree to this use of cookies and data.
  • En España
  • Lista de países
  • Para 7 días
  • Temperatura del agua
  • El tiempo en el mapa
  • Informadores
  • user-avatar
    Iniciar sesión

    Tiempo cada hora Illapel

    Hoy, 27 Enero, Lunes

    Tiempo Temperatura Precipitaciones Viento Presión Humedad
    00:00 +17°C° 0 mm 0 mps 723 mmHg 73%
    01:00 +17°C° 0 mm 0 mps 723 mmHg 76%
    02:00 +16°C° 0 mm 0 mps 723 mmHg 78%
    03:00 +16°C° 0 mm 0 mps 722 mmHg 79%
    04:00 +16°C° 0 mm 0 mps 722 mmHg 81%
    05:00 +18°C° 0 mm 0 mps 722 mmHg 70%
    06:00 +21°C° 0 mm 0 mps 723 mmHg 60%
    07:00 +26°C° 0 mm 1 mps 724 mmHg 49%
    08:00 +27°C° 0 mm 1 mps 724 mmHg 44%
    09:00 +29°C° 0 mm 2 mps 724 mmHg 40%
    10:00 +31°C° 0 mm 3 mps 724 mmHg 35%
    11:00 +33°C° 0 mm 4 mps 724 mmHg 34%
    12:00 +33°C° 0 mm 4 mps 724 mmHg 33%
    13:00 +34°C° 0 mm 4 mps 724 mmHg 31%
    14:00 +33°C° 0 mm 4 mps 723 mmHg 33%
    15:00 +32°C° 0 mm 4 mps 723 mmHg 34%
    16:00 +32°C° 0 mm 4 mps 723 mmHg 36%
    17:00 +28°C° 0 mm 3 mps 723 mmHg 47%
    18:00 +25°C° 0 mm 2 mps 722 mmHg 58%
    19:00 +22°C° 0 mm 1 mps 722 mmHg 69%
    20:00 +21°C° 0 mm 1 mps 722 mmHg 73%
    21:00 +18°C° 0 mm 0 mps 722 mmHg 77%
    22:00 +17°C° 0 mm 0 mps 723 mmHg 81%
    23:00 +17°C° 0 mm 0 mps 722 mmHg 81%

    Mañana, 28 Enero, Martes

    Tiempo Temperatura Precipitaciones Viento Presión Humedad
    00:00 +17°C° 0 mm 0 mps 722 mmHg 81%
    01:00 +16°C° 0 mm 0 mps 721 mmHg 81%
    02:00 +16°C° 0 mm 0 mps 721 mmHg 82%
    03:00 +15°C° 0 mm 0 mps 721 mmHg 83%
    04:00 +15°C° 0 mm 0 mps 721 mmHg 84%
    05:00 +17°C° 0 mm 0 mps 721 mmHg 74%
    06:00 +20°C° 0 mm 0 mps 722 mmHg 64%
    07:00 +22°C° 0 mm 0 mps 722 mmHg 54%
    08:00 +26°C° 0 mm 1 mps 723 mmHg 49%
    09:00 +28°C° 0 mm 3 mps 723 mmHg 44%
    10:00 +29°C° 0 mm 4 mps 723 mmHg 39%
    11:00 +30°C° 0 mm 4 mps 723 mmHg 38%
    12:00 +30°C° 0 mm 4 mps 723 mmHg 36%
    13:00 +30°C° 0 mm 4 mps 723 mmHg 35%
    14:00 +30°C° 0 mm 4 mps 723 mmHg 38%
    15:00 +29°C° 0 mm 4 mps 723 mmHg 42%
    16:00 +28°C° 0 mm 4 mps 723 mmHg 45%
    17:00 +25°C° 0 mm 3 mps 723 mmHg 57%
    18:00 +21°C° 0 mm 2 mps 723 mmHg 70%
    19:00 +20°C° 0 mm 1 mps 722 mmHg 83%
    20:00 +19°C° 0 mm 1 mps 722 mmHg 85%
    21:00 +18°C° 0 mm 1 mps 722 mmHg 87%
    22:00 +15°C° 0 mm 0 mps 722 mmHg 90%
    23:00 +15°C° 0 mm 0 mps 722 mmHg 90%

    Pasado mañana, 29 Enero, Miércoles

    Tiempo Temperatura Precipitaciones Viento Presión Humedad
    00:00 +14°C° 0 mm 0 mps 721 mmHg 91%
    01:00 +14°C° 0 mm 0 mps 721 mmHg 91%
    02:00 +15°C° 0 mm 1 mps 721 mmHg 91%
    03:00 +15°C° 0 mm 1 mps 721 mmHg 92%
    04:00 +15°C° 0 mm 1 mps 721 mmHg 92%
    05:00 +16°C° 0 mm 1 mps 722 mmHg 87%
    06:00 +19°C° 0 mm 1 mps 722 mmHg 82%
    07:00 +20°C° 0 mm 1 mps 723 mmHg 77%
    08:00 +23°C° 0 mm 2 mps 723 mmHg 67%
    09:00 +25°C° 0 mm 3 mps 723 mmHg 56%
    10:00 +27°C° 0 mm 4 mps 724 mmHg 46%
    11:00 +28°C° 0 mm 4 mps 724 mmHg 43%
    12:00 +29°C° 0 mm 4 mps 724 mmHg 41%
    13:00 +29°C° 0 mm 4 mps 724 mmHg 38%
    14:00 +28°C° 0 mm 4 mps 723 mmHg 40%
    15:00 +28°C° 0 mm 4 mps 723 mmHg 41%
    16:00 +27°C° 0 mm 4 mps 723 mmHg 42%
    17:00 +24°C° 0 mm 3 mps 723 mmHg 53%
    18:00 +20°C° 0 mm 2 mps 723 mmHg 63%
    19:00 +19°C° 0 mm 1 mps 724 mmHg 73%
    20:00 +18°C° 0 mm 1 mps 723 mmHg 75%
    21:00 +18°C° 0 mm 1 mps 723 mmHg 78%
    22:00 +15°C° 0 mm 0 mps 723 mmHg 80%
    23:00 +16°C° 0 mm 1 mps 723 mmHg 81%

    30 Enero, Jueves

    Tiempo Temperatura Precipitaciones Viento Presión Humedad
    00:00 +15°C° 0 mm 1 mps 722 mmHg 83%
    01:00 +15°C° 0 mm 1 mps 722 mmHg 84%
    02:00 +13°C° 0 mm 0 mps 722 mmHg 84%
    03:00 +13°C° 0 mm 0 mps 722 mmHg 83%
    04:00 +13°C° 0 mm 0 mps 721 mmHg 82%
    05:00 +16°C° 0 mm 0 mps 722 mmHg 72%
    06:00 +19°C° 0 mm 0 mps 722 mmHg 62%
    07:00 +23°C° 0 mm 1 mps 723 mmHg 51%
    08:00 +25°C° 0 mm 2 mps 723 mmHg 46%
    09:00 +27°C° 0 mm 2 mps 723 mmHg 41%
    10:00 +29°C° 0 mm 3 mps 724 mmHg 36%
    11:00 +30°C° 0 mm 4 mps 724 mmHg 35%
    12:00 +30°C° 0 mm 4 mps 724 mmHg 34%
    13:00 +32°C° 0 mm 5 mps 723 mmHg 33%
    14:00 +30°C° 0 mm 4 mps 723 mmHg 34%
    15:00 +29°C° 0 mm 4 mps 723 mmHg 35%
    16:00 +29°C° 0 mm 3 mps 723 mmHg 36%
    17:00 +26°C° 0 mm 3 mps 723 mmHg 47%
    18:00 +23°C° 0 mm 2 mps 723 mmHg 58%
    19:00 +20°C° 0 mm 1 mps 723 mmHg 69%
    20:00 +19°C° 0 mm 1 mps 723 mmHg 72%
    21:00 +16°C° 0 mm 0 mps 723 mmHg 75%
    22:00 +15°C° 0 mm 0 mps 723 mmHg 78%
    23:00 +15°C° 0 mm 0 mps 723 mmHg 80%

    31 Enero, Viernes

    Tiempo Temperatura Precipitaciones Viento Presión Humedad
    00:00 +14°C° 0 mm 0 mps 722 mmHg 81%
    01:00 +14°C° 0 mm 0 mps 722 mmHg 83%
    02:00 +14°C° 0 mm 0 mps 722 mmHg 83%
    03:00 +14°C° 0 mm 0 mps 722 mmHg 83%
    04:00 +14°C° 0 mm 0 mps 722 mmHg 83%
    05:00 +16°C° 0 mm 0 mps 722 mmHg 72%
    06:00 +19°C° 0 mm 0 mps 723 mmHg 61%
    07:00 +24°C° 0 mm 1 mps 723 mmHg 51%
    08:00 +25°C° 0 mm 1 mps 724 mmHg 46%
    09:00 +27°C° 0 mm 2 mps 724 mmHg 42%
    10:00 +29°C° 0 mm 3 mps 724 mmHg 37%
    11:00 +30°C° 0 mm 3 mps 724 mmHg 36%
    12:00 +30°C° 0 mm 4 mps 724 mmHg 35%
    13:00 +32°C° 0 mm 4 mps 724 mmHg 34%
    14:00 +30°C° 0 mm 4 mps 724 mmHg 35%
    15:00 +30°C° 0 mm 4 mps 723 mmHg 36%
    16:00 +29°C° 0 mm 3 mps 723 mmHg 37%
    17:00 +26°C° 0 mm 3 mps 723 mmHg 47%
    18:00 +23°C° 0 mm 2 mps 723 mmHg 57%
    19:00 +20°C° 0 mm 1 mps 723 mmHg 66%
    20:00 +19°C° 0 mm 1 mps 723 mmHg 71%
    21:00 +16°C° 0 mm 0 mps 723 mmHg 75%
    22:00 +15°C° 0 mm 0 mps 723 mmHg 79%
    23:00 +15°C° 0 mm 0 mps 722 mmHg 80%

    1 Febrero, Sábado

    Tiempo Temperatura Precipitaciones Viento Presión Humedad
    00:00 +15°C° 0 mm 0 mps 722 mmHg 82%
    01:00 +14°C° 0 mm 0 mps 722 mmHg 84%
    02:00 +14°C° 0 mm 0 mps 721 mmHg 84%
    03:00 +14°C° 0 mm 0 mps 721 mmHg 84%
    04:00 +13°C° 0 mm 0 mps 721 mmHg 84%
    05:00 +15°C° 0 mm 0 mps 721 mmHg 76%
    06:00 +18°C° 0 mm 0 mps 722 mmHg 68%
    07:00 +22°C° 0 mm 1 mps 722 mmHg 60%
    08:00 +24°C° 0 mm 2 mps 723 mmHg 53%
    09:00 +26°C° 0 mm 2 mps 723 mmHg 47%
    10:00 +28°C° 0 mm 3 mps 723 mmHg 40%
    11:00 +28°C° 0 mm 4 mps 723 mmHg 39%
    12:00 +29°C° 0 mm 4 mps 723 mmHg 37%
    13:00 +30°C° 0 mm 4 mps 723 mmHg 36%
    14:00 +29°C° 0 mm 4 mps 723 mmHg 37%
    15:00 +28°C° 0 mm 4 mps 723 mmHg 38%
    16:00 +28°C° 0 mm 3 mps 722 mmHg 39%
    17:00 +25°C° 0 mm 3 mps 722 mmHg 50%
    18:00 +21°C° 0 mm 2 mps 722 mmHg 61%
    19:00 +19°C° 0 mm 1 mps 722 mmHg 72%
    20:00 +18°C° 0 mm 1 mps 723 mmHg 77%
    21:00 +15°C° 0 mm 1 mps 723 mmHg 82%
    22:00 +13°C° 0 mm 0 mps 723 mmHg 87%
    23:00 +13°C° 0 mm 0 mps 722 mmHg 87%
    Mostrar más